Location: *
(24.1434°N, 56.8729°E)
Time: 16:48:13
(UTC+00:00)

Cosmos 1656 Rocket - Pass Details

Date: 09 April 2020
Orbit: 796 x 846 km, 71.1° (Epoch: 06 June)

Event Time Altitude Azimuth Distance (km) Brightness Sun altitude
Rises 15:48:03 0° 347° (NNW) 3,380 7.3 -17.7°
Reaches altitude 10° 15:50:33 10° 351° (N) 2,437 6.4 -18.3°
Maximum altitude 15:56:03 59° 71° (ENE) 946 3.7 -19.5°
Enters shadow 15:58:14 35° 134° (SE) 1,297 4.2 -19.9°
